map of MXP home
MXP - Airport
Location
City:  Milan, Lombardy, Italy
Near (Alt.):Milano
Name:Malpensa
ICAO:LIMC
IATA:MXP

Details
Type:Airport (Aerodrome, Airfield)
Use:Public/Civil, International (customs port of entry)
Latitude:4537'50"N (45.630606)
Longitude:843'41"E (8.728111)
Datum:WGS 1984
Elevation:767 ft (234 m)
Variation:2.36E (WMM2015 magnetic declination)
0.12 annual change
Runways:2
Longest:12861 × 197 ft (3920 × 60 m), paved

Time
Time Zone:UTC+1 (DST+2)
Local Time:

Weather
METAR:LIMC 201920Z 17003KT 140V200 0500 R35R/1300U R17L/0400V1200N R35L/1100D FG OVC001 12/11 Q1022 NOSIG
TAF:LIMC 201700Z 2018/2124 VRB05KT 2000 BR BKN010
BECMG 2019/2021 1500 BCFG
BECMG 2022/2024 0400 FG OVC002
BECMG 2108/2111 3000 BR BKN010

Related Locations
Nearby:
Farthest:CHT: 12154 mi / 19560 km
Waitangi [Tuuta], CIT, NZ

Find:

   beyond  
but within

Other Information
Maps:
NOTAMs:
Links:
Sources:

  
flag of Italy
flag of Lombardy
flag of Milan
  

Sectional Chart

Flight Planning
at skyvector.com

Satellite Image

Google Maps Satellite view

 

Copyright © 2004-2017 Karl L. Swartz. All rights reserved.
The Great Circle Mapper name and logo are trademarks of the Great Circle Mapper.
All other trademarks mentioned herein belong to their respective owners.
Please see credits for attibutions and further copyright information.

  Follow gcmap on Facebook Follow gcmap on Twitter Follow gcmap on Google+ GCmap on LinkedIn

hCard Microformat

Geo Microformat